Location: City of Britt
(43.0975°N, 93.8032°W)
Time: 19:15:49
(UTC+00:00)

Gurwin Techsat 1B - Visible Passes

Search period start: 05 December 2024 00:00
Search period end: 15 December 2024 00:00
Orbit: 810 x 812 km, 98.9° (Epoch: 05 December)

Date Brightness Start Highest point End Pass type
(mag) Time Alt. Az. Time Alt. Az. Time Alt. Az.
05 Dec 10.7 11:30:06 10° N 11:30:29 12° NNW 11:30:29 12° NNW visible
06 Dec 10.8 11:06:19 10° N 11:06:42 12° N 11:06:42 12° N visible
07 Dec 11.0 10:42:43 10° N 10:42:55 11° N 10:42:55 11° N visible
10 Dec 11.0 11:12:45 10° N 11:12:45 10° N 11:12:45 10° N visible
